Location: *
(44.1392°N, 4.8079°E)
Time: 11:51:14
(UTC+00:00)

ATLAS 5 CENTAUR R/B - Visible Passes

Search period start: 22 October 2021 00:00
Search period end: 01 November 2021 00:00
Orbit: 499 x 1157 km, 63.3° (Epoch: 17 October)

Date Brightness Start Highest point End Pass type
(mag) Time Alt. Az. Time Alt. Az. Time Alt. Az.
22 Oct 3.6 18:29:35 10° W 18:32:42 21° NW 18:36:10 10° NNE visible
23 Oct 3.5 18:10:01 10° W 18:13:13 23° NW 18:16:46 10° NNE visible
24 Oct 3.4 17:50:28 10° W 17:53:44 24° NW 17:57:22 10° NNE visible
25 Oct 3.3 17:30:55 10° W 17:34:15 25° NW 17:37:57 10° NNE visible
26 Oct 3.2 17:11:23 10° W 17:14:46 27° NW 17:18:33 10° NNE visible
31 Oct 4.2 17:22:54 10° NNW 17:23:26 10° NNW 17:24:00 10° N visible
